Regional Weather Roundup
Issued by NWS Kansas City/Pleasant Hill, MO

Home | Current Version | Previous Version | Graphics & Text | Print | Product List | Glossary Off
Versions: 1 2 3 4 5 6 7 8 9 10 11 12 13 14 15 16 17 18 19 20 21 22 23 24 25 26 27 28 29 30 31 32 33 34 35 36 37 38 39 40 41 42 43 44 45 46 47 48 49 50

000
ASUS43 KEAX 201704
RWREAX

WEATHER ROUNDUP FOR EASTERN KANSAS AND NORTHWEST MISSOURI
NATIONAL WEATHER SERVICE KANSAS CITY/PLEASANT HILL MO
1200 PM CDT SAT SEP 20 2014

KSZ040-057-103>105-MOZ028-029-037-043-201800-
...KANSAS CITY METROPOLITAN AREA...

CITY           SKY/WX    TMP DP  RH WIND       PRES   REMARKS
K.C. INTL      PTSUNNY   80  71  74 SW8       30.00R
K.C. DOWNTOWN  PTSUNNY   84  70  62 SW12      29.99R
LEES SUMMIT    SUNNY     81  70  69 SW16G22   30.00F
OLATHE - IXD   SUNNY     80  71  74 SW13G22   30.02R
OLATHE - OJC   SUNNY     81  70  69 SW12      30.00F
LAWRENCE       SUNNY     82  69  64 SW13      29.99S

$$

MOZ001>008-011>017-020>025-030>033-038>040-044>046-053-054-201800-
...NORTHERN AND CENTRAL MISSOURI...

CITY           SKY/WX    TMP DP  RH WIND       PRES   REMARKS
ST. JOSEPH     CLOUDY    75  69  81 W6        29.97R
MOSBY          PTSUNNY   79  68  69 SW10      29.99R
WHITEMAN AFB   SUNNY     81  70  70 SW15      29.99F
CLINTON        MOSUNNY   81  72  74 SW13      30.02F
SEDALIA        SUNNY     82  69  64 SW15G21   30.01F
WARSAW         NOT AVBL
MARSHALL       MOSUNNY   84  70  61 SW14G20   29.98F
CHILLICOTHE      N/A     75  70  84 SW8       29.94F
MOBERLY        PTSUNNY   81  66  61 SW16G26   29.96F
KIRKSVILLE     CLOUDY    74  68  81 SW10      29.94F HAZE

$$

MOZ041-047>049-056>058-063>065-088>090-097-201800-
...EASTERN AND SOUTHERN MISSOURI...

CITY           SKY/WX    TMP DP  RH WIND       PRES   REMARKS
ST. LOUIS INTL PTSUNNY   82  69  64 SW10      30.01F
SPIRIT OF STL  MOSUNNY   80  69  69 SW10      30.00F
COLUMBIA       MOSUNNY   81  71  71 SW16      30.00F
JEFFERSON CITY MOSUNNY   83  68  60 W10G17    30.00F
MEXICO         PTSUNNY   82  73  74 SW14G20   29.98F
ROLLA          SUNNY     79  68  69 SW13      30.04F
LEBANON        MOSUNNY   81  66  61 SW13      30.07F
OSAGE BEACH    MOSUNNY   81  68  65 SW9       30.05S
SPRINGFIELD    MOSUNNY   79  68  69 SW12      30.08S
BRANSON        PTSUNNY   82  70  65 S6        30.10F
NEVADA         PTSUNNY   79  70  73 SW10G16   30.05F
JOPLIN         PTSUNNY   82  71  69 SW10      30.07S
WEST PLAINS    MOSUNNY   80  67  64 W10       30.10F

$$

IAZ060-094-KSZ022-034>040-054-083-096-NEZ052-066-093-201800-
...KANSAS...SOUTHEAST NEBRASKA AND IOWA...

CITY           SKY/WX    TMP DP  RH WIND       PRES   REMARKS
TOPEKA         SUNNY     84  70  62 SW13      29.98S
MANHATTAN      SUNNY     85  68  56 SW12      29.96S
EMPORIA        SUNNY     82  70  66 S18       29.99F
CHANUTE        CLOUDY    76  71  85 S12       30.04F
WICHITA        PTSUNNY   85  66  53 SW15      30.01F
OMAHA          MOSUNNY   78  67  68 S10       29.91F
LINCOLN        MOSUNNY   79  67  66 S7        29.95F
FALLS CITY     TSTM      69  67  93 MISG      29.95F VSB 1/2
LAMONI         CLOUDY    72  68  87 W13G18    29.94R
DES MOINES     PTSUNNY   78  66  66 NW15      29.89S

$$




USA.gov is the U.S. government's official web portal to all federal, state and local government web resources and services.